Temperature
21 21 21 21 21 22 22 23 22 23 24 24 23 20 19 16 12 11 9 8 8 8 8 8 8 8 9 9 9 8 6 6 6 5 5 5 5 5 5 5 5 5 5 4
20 21 20 20 21 21 21 22 22 22 23 23 21 20 18 15 12 11 9 8 8 8 7 8 8 9 8 8 6 6 6 6 6 5 5 5 5 5 5 4 4 4 4 3
19 20 19 19 20 21 21 22 22 22 21 20 20 19 17 15 12 11 9 8 8 7 6 6 6 6 7 7 6 6 6 6 6 6 6 5 5 5 4 4 3 3 3 2
18 17 16 18 18 18 18 19 18 19 19 18 18 17 14 13 12 10 8 7 6 5 5 6 5 6 6 6 5 6 6 6 6 6 6 5 4 4 3 3 2 2 2 1
16 16 17 19 16 17 16 17 16 15 16 15 13 11 11 10 10 9 8 7 6 5 5 4 5 5 4 5 6 6 6 6 6 5 5 4 4 3 2 2 2 1 1 1
15 14 15 16 15 15 15 16 15 14 14 13 12 13 11 8 8 8 7 6 5 5 4 4 4 4 5 5 6 6 6 5 5 4 4 3 2 2 1 1 1 0 0 0
14 13 16 15 14 15 15 14 13 13 13 12 10 9 8 7 7 7 6 5 5 4 4 3 4 4 4 5 5 5 5 4 4 3 3 2 2 1 1 0 0 -0 -1 -1
15 13 11 13 14 14 14 12 12 12 12 9 8 7 6 6 6 6 5 5 4 4 3 3 4 4 5 5 4 4 4 3 3 2 2 2 1 1 1 0 -0 -1 -1 -1
14 14 14 13 13 12 12 12 12 11 11 8 6 6 5 5 5 5 5 4 4 4 4 5 5 5 5 5 4 4 3 3 2 2 1 1 1 1 1 -0 -1 -1 -2 -2
13 13 14 13 12 12 11 11 11 10 8 7 5 4 4 5 4 4 4 5 5 5 6 5 5 5 5 4 4 3 3 2 2 1 1 1 1 1 -0 -1 -1 -2 -2 -2
12 13 13 13 12 11 9 9 8 7 7 5 4 5 5 5 5 5 6 6 6 6 6 6 5 5 5 4 3 3 3 2 2 2 1 1 -0 -0 -1 -1 -1 -1 -2 -1
12 12 11 11 9 8 7 7 5 5 5 5 6 6 6 6 6 6 6 6 6 6 6 6 5 5 4 4 3 3 3 3 2 2 1 0 -0 -0 -0 -1 -1 -1 -1 -1
9 8 8 7 7 6 6 5 5 6 7 7 7 7 7 7 6 6 6 6 7 6 6 6 5 5 4 3 3 2 2 2 2 2 1 0 -0 -0 -1 -1 -1 -1 -2 -1
6 6 6 6 6 5 5 5 6 7 7 6 6 7 7 6 6 7 7 6 6 6 6 6 5 4 3 3 2 2 2 2 2 2 1 0 -0 -1 -1 -1 -1 -1 -1 -1
5 6 6 5 5 5 5 6 7 6 6 6 7 7 7 7 7 7 7 7 7 6 6 5 5 4 3 2 2 2 2 2 2 2 1 0 -0 -1 -1 -1 -2 -2 -1 -1
5 5 6 6 6 6 7 8 8 7 7 7 7 7 7 7 7 7 7 7 7 6 6 5 4 3 3 2 2 2 1 1 1 2 1 1 0 -1 -1 -2 -2 -2 -2 -2
6 6 7 7 7 7 8 8 8 7 7 7 7 7 7 7 7 7 7 6 6 5 5 4 4 3 3 3 3 3 2 2 1 1 1 1 1 -0 -1 -1 -2 -3 -2 -2
7 7 8 8 8 8 8 7 7 7 7 7 7 7 7 7 7 7 6 6 5 5 4 4 4 3 3 3 3 3 2 2 2 1 1 1 0 0 -0 -1 -2 -3 -3 -2
9 8 8 8 8 7 7 7 7 7 7 7 7 7 7 7 7 7 6 6 6 5 4 4 3 3 2 2 3 3 3 2 2 1 1 1 1 0 -1 -1 -1 -2 -2 -2
8 8 7 7 7 7 7 7 7 7 7 7 7 7 7 7 7 6 6 6 6 5 4 3 3 3 2 2 2 3 3 2 2 2 1 1 0 0 -1 -1 -1 -1 -2 -3
8 8 8 7 7 7 7 7 7 7 7 7 7 7 7 7 6 6 7 6 5 4 4 4 4 3 3 2 3 3 3 2 2 1 1 1 0 -0 -1 -1 -1 -1 -2 -2
7 8 8 7 7 7 7 7 7 7 7 7 7 7 6 6 6 6 6 6 5 5 5 4 4 3 3 3 3 3 2 2 1 1 1 0 0 -0 -1 -1 -2 -2 -2 -2
7 7 7 7 7 7 7 7 7 7 7 7 7 7 7 7 7 7 6 6 5 5 5 4 3 3 3 3 3 3 2 2 1 1 1 0 -0 -1 -1 -2 -2 -2 -3 -3
7 7 7 6 6 7 7 7 7 7 7 7 7 7 7 7 7 7 6 5 5 5 4 3 3 3 3 3 3 3 2 2 2 1 1 0 -0 -1 -1 -2 -2 -2 -3 -3
7 7 6 6 6 7 7 7 7 7 7 7 7 7 7 7 7 7 6 5 5 4 4 3 3 3 4 3 3 2 2 1 1 1 0 -0 -0 -1 -1 -2 -2 -3 -2 -3
6 6 6 6 7 7 7 7 8 8 8 8 7 7 7 6 6 6 6 5 4 4 4 4 4 4 4 3 3 2 2 1 1 0 0 -0 -1 -1 -1 -2 -2 -2 -3 -3
6 6 6 6 6 7 7 7 8 8 8 8 7 7 7 6 6 6 6 5 5 5 5 4 4 3 3 3 2 2 1 1 1 1 0 -0 -0 -1 -1 -2 -2 -2 -3 -3
Wind_Speed
6 5 6 6 9 9 11 11 10 10 6 4 1 6 8 12 15 17 16 15 14 13 13 11 10 9 8 7 6 4 3 2 1 1 2 4 7 9 10 11 11 11 10 10
11 10 11 15 16 16 17 16 16 17 15 6 2 6 9 12 16 17 17 16 14 13 13 11 9 8 7 6 4 2 1 1 1 2 4 6 8 9 8 8 8 8 8 9
12 10 10 14 12 13 13 14 14 13 8 6 4 6 8 10 14 15 16 15 14 12 9 8 8 8 6 7 3 1 2 2 2 3 5 6 7 6 6 7 8 9 9 9
9 6 10 1 6 5 7 6 8 10 9 10 9 4 4 7 10 13 14 13 13 11 10 8 7 7 3 4 3 2 2 3 3 4 5 5 5 7 8 8 9 9 9 9
6 10 10 2 5 6 6 1 8 10 10 8 5 1 2 3 3 10 14 14 14 12 10 9 7 5 1 2 4 2 3 3 4 4 5 5 7 8 8 8 8 9 8 8
6 6 4 4 6 5 5 3 9 12 12 9 3 4 2 6 10 14 15 15 15 11 10 9 7 3 1 1 1 2 4 5 5 5 5 6 7 7 7 7 8 9 9 8
9 7 4 5 7 4 5 5 12 13 13 6 2 3 6 11 13 15 16 16 14 12 8 6 6 5 2 1 4 3 4 6 5 4 4 5 6 6 6 6 6 7 8 8
6 8 5 7 8 5 10 14 14 13 9 6 8 10 12 13 15 16 16 15 12 10 10 8 6 5 4 5 5 5 5 5 4 4 6 6 6 5 4 6 7 8 9 8
4 4 5 7 8 11 13 15 13 10 1 9 12 14 15 15 15 14 14 12 12 12 11 8 5 5 7 6 6 6 5 4 5 6 7 6 5 5 7 7 7 9 9 9
6 7 8 12 13 12 12 13 8 2 7 14 17 16 16 15 13 12 13 14 14 12 12 9 7 6 7 7 6 4 4 4 5 6 5 6 6 8 8 8 8 7 8 9
13 12 11 8 7 10 8 3 6 11 13 17 18 16 16 14 14 13 13 11 11 11 11 9 7 8 8 6 5 5 5 6 6 6 6 7 7 8 8 8 6 7 8 9
10 10 8 11 11 7 3 13 15 16 17 15 16 17 18 16 15 13 13 12 11 10 9 9 10 9 8 6 5 4 4 6 6 7 7 6 5 3 3 2 1 3 6 8
11 10 10 10 4 5 15 15 13 13 17 18 17 17 17 15 14 14 14 12 10 10 10 11 10 9 9 7 7 6 6 6 5 6 6 6 7 8 8 6 2 1 6 10
9 5 3 8 11 17 18 13 12 15 18 16 13 14 15 15 14 13 13 11 10 10 11 11 11 10 9 7 7 6 5 3 6 8 8 8 7 7 7 7 8 7 8 9
11 15 16 17 17 16 14 13 16 16 16 15 13 14 14 14 14 13 12 10 10 11 11 11 11 10 8 7 7 9 8 7 7 8 7 6 6 6 5 6 7 7 9 11
15 13 10 13 14 13 14 14 16 15 15 15 14 14 14 14 13 12 10 9 10 10 10 10 10 8 7 6 7 8 8 7 7 8 7 7 7 7 7 8 8 8 8 10
10 9 10 11 11 11 14 15 14 14 14 14 14 14 14 14 12 10 10 10 10 10 10 9 9 8 7 6 7 7 8 7 5 9 9 9 8 8 7 6 7 8 8 10
8 8 9 12 11 12 13 14 14 14 13 14 13 13 13 12 11 10 11 11 11 11 10 9 8 7 7 7 7 7 7 8 8 9 9 9 9 9 10 10 10 9 10 8
11 12 12 12 12 13 14 14 14 14 13 13 13 12 12 12 12 12 12 12 12 11 10 9 5 6 8 6 6 6 7 7 8 9 9 9 9 10 10 9 8 7 7 9
12 14 14 13 13 14 15 15 14 13 12 13 14 14 14 14 13 12 12 11 11 10 10 7 5 7 7 3 6 4 7 8 8 9 8 9 10 10 10 9 10 10 10 9
8 12 13 13 13 14 13 13 13 13 13 14 14 14 13 11 10 10 11 11 10 8 8 5 5 6 6 1 2 7 9 8 9 9 9 9 9 10 10 10 11 11 10 10
6 10 12 13 13 13 12 12 13 12 11 12 14 13 11 10 9 8 9 10 9 5 6 8 8 8 4 3 7 9 9 9 9 9 9 9 9 10 10 10 10 10 10 10
9 10 11 12 13 13 13 13 14 12 11 12 11 10 9 9 8 9 9 9 8 3 8 10 8 1 7 3 9 9 9 9 9 9 9 9 9 9 9 9 9 9 10 10
9 10 11 11 13 13 12 12 12 11 11 10 10 10 9 8 7 9 10 10 9 8 10 9 4 5 5 8 8 8 9 9 9 9 9 9 9 9 9 9 9 9 9 10
10 11 11 10 10 11 11 9 10 10 9 9 9 8 7 8 8 9 11 11 9 10 10 7 5 6 4 9 9 10 10 10 9 9 9 10 10 10 9 9 9 9 9 10
11 10 11 10 9 9 9 9 8 9 10 10 10 9 9 9 10 10 10 10 11 10 10 7 5 5 9 9 10 10 9 9 8 9 10 9 10 10 9 9 10 10 10 11
12 12 11 8 8 8 7 7 8 9 8 10 10 9 10 9 9 10 11 10 10 9 9 8 8 7 8 9 9 9 8 9 9 8 9 9 9 9 9 10 10 11 11 13
Wind_Direction
291 310 303 291 284 280 277 283 285 288 279 283 215 212 193 165 170 168 163 159 157 157 143 141 136 116 103 98 105 130 146 152 152 249 278 287 297 305 307 305 309 313 315 315
274 272 281 281 276 274 273 275 276 277 278 311 312 214 202 179 178 174 167 165 162 153 152 145 126 121 120 112 111 121 142 191 195 279 293 301 306 310 317 331 336 334 333 328
269 274 285 273 285 287 280 280 279 282 312 343 297 240 226 199 193 181 171 164 154 139 133 120 111 99 104 127 131 186 223 265 284 298 310 325 328 337 347 347 342 336 331 330
268 262 254 19 22 334 306 314 340 313 330 333 328 322 268 230 202 175 160 142 132 125 111 94 95 99 108 102 110 190 220 303 333 352 2 15 356 354 353 345 340 338 333 328
244 243 255 299 36 360 328 314 30 352 344 341 2 347 10 348 167 150 136 128 123 117 109 104 92 68 77 132 138 213 296 345 26 42 44 10 357 357 350 342 347 335 332 336
232 245 252 64 29 349 292 268 27 1 352 341 315 293 73 95 103 105 108 110 111 107 109 122 132 129 331 339 27 354 9 55 70 50 20 5 358 353 348 340 352 343 342 334
225 238 263 54 5 322 260 346 350 343 344 350 10 70 104 105 102 103 105 107 106 106 112 121 114 112 107 54 38 30 88 95 70 33 6 357 350 354 338 340 353 339 325 320
231 241 249 21 342 326 327 324 322 323 342 62 103 107 104 102 103 105 104 103 105 116 127 136 147 139 116 67 74 99 101 87 54 14 354 354 346 334 331 8 350 342 336 334
257 282 334 331 309 304 305 305 308 299 10 121 120 111 107 106 105 107 112 122 133 131 136 141 138 104 85 90 104 109 99 71 35 14 8 358 347 355 18 16 1 355 347 340
269 266 306 309 306 307 310 307 301 278 132 129 122 119 115 114 117 124 135 137 138 140 135 134 121 98 96 104 111 111 87 52 34 35 15 24 24 31 20 13 7 351 343 341
267 278 288 291 316 334 334 347 92 104 122 125 124 122 120 123 130 138 132 126 125 121 119 108 102 102 102 110 117 95 64 41 32 49 46 44 39 25 23 30 13 350 351 340
287 319 314 319 340 347 84 112 115 116 115 118 123 130 129 127 126 124 121 121 124 124 116 110 108 107 107 107 90 61 51 56 37 38 44 35 29 77 110 65 341 335 345 334
294 297 304 313 329 107 111 110 121 133 127 121 124 122 121 120 121 123 128 129 119 110 109 111 109 101 96 88 71 55 42 36 49 38 34 39 25 20 15 8 311 322 5 352
288 261 72 87 101 106 108 121 123 101 99 103 112 117 116 119 124 119 113 107 108 110 111 109 100 94 91 83 71 66 69 32 30 36 31 37 24 24 15 1 357 360 6 359
114 119 106 105 102 104 117 127 117 114 120 130 132 123 122 124 120 115 109 107 107 109 110 106 100 96 92 83 70 53 44 38 36 44 35 33 33 22 15 8 6 2 0 1
106 103 107 117 133 146 145 138 127 124 127 131 127 121 117 115 115 109 105 106 99 102 106 104 104 107 102 87 83 82 71 30 6 30 28 23 33 37 21 21 21 6 7 7
115 124 137 136 139 140 135 132 125 121 128 131 124 120 119 123 120 107 96 88 88 97 106 109 110 109 97 79 68 64 63 60 32 37 33 27 34 45 48 35 27 7 13 30
134 124 121 119 123 125 124 123 123 126 126 125 130 128 128 125 114 105 102 101 97 99 101 104 104 105 93 74 65 64 58 51 45 41 40 36 33 39 35 39 42 19 11 21
114 100 96 104 114 121 123 120 116 117 124 133 132 123 117 114 109 105 104 107 107 103 98 102 107 102 84 40 355 56 52 49 46 42 38 40 38 45 42 29 42 51 29 10
92 98 100 101 106 114 118 118 119 123 130 126 119 120 121 117 108 100 97 88 80 89 102 122 127 102 96 63 305 40 52 46 44 48 41 40 37 40 42 36 27 32 39 30
106 109 108 109 113 117 119 121 125 127 124 125 124 119 121 119 109 107 113 106 101 105 112 123 103 99 94 54 335 55 55 51 48 44 41 40 41 40 36 31 30 31 31 28
139 109 105 112 117 120 120 125 134 133 126 125 119 120 125 124 112 87 85 105 115 152 116 95 82 62 53 328 62 61 59 55 50 46 43 40 38 39 37 32 29 31 29 29
139 120 118 122 127 127 124 125 129 130 128 123 124 135 134 118 117 121 113 113 118 114 87 90 97 120 282 49 69 66 62 56 53 49 42 42 43 43 39 35 30 32 31 26
141 133 123 127 138 138 130 124 123 120 114 113 118 127 132 121 102 95 102 96 95 95 96 104 130 264 293 75 70 66 61 55 52 50 48 44 44 44 41 37 32 32 34 31
159 150 139 142 151 145 135 133 132 126 121 118 123 126 124 119 118 118 117 119 135 121 110 129 192 247 76 73 70 67 64 55 41 45 49 44 43 43 40 41 40 31 34 35
158 168 158 165 153 145 148 160 161 155 137 127 122 121 116 115 121 122 122 127 128 127 128 133 118 95 82 77 73 67 62 60 60 50 48 47 45 43 42 39 41 40 39 36
158 154 154 168 169 152 144 149 154 160 159 137 123 129 130 129 129 126 128 132 133 127 118 112 101 89 89 88 81 77 76 67 53 51 54 50 47 44 41 43 43 42 44 44
Height
1464 1464 1464 1464 1463 1460 1458 1454 1458 1449 1448 1447 1452 1459 1462 1469 1475 1480 1484 1488 1492 1497 1500 1503 1507 1508 1511 1513 1513 1515 1517 1520 1521 1523 1524 1525 1525 1522 1520 1519 1517 1513 1510 1507
1469 1464 1466 1465 1462 1460 1459 1457 1457 1454 1451 1450 1455 1461 1464 1470 1474 1477 1481 1486 1491 1496 1499 1503 1504 1507 1509 1510 1514 1518 1520 1521 1521 1522 1522 1523 1522 1520 1517 1515 1513 1509 1505 1503
1471 1465 1470 1470 1458 1456 1454 1453 1453 1453 1456 1459 1459 1463 1466 1470 1475 1478 1482 1486 1492 1496 1500 1503 1504 1506 1508 1509 1513 1518 1521 1522 1521 1520 1520 1520 1520 1518 1515 1511 1509 1505 1502 1500
1472 1475 1484 1466 1465 1465 1464 1461 1462 1461 1461 1465 1464 1465 1469 1472 1475 1478 1482 1486 1491 1496 1499 1501 1505 1504 1508 1509 1512 1518 1520 1521 1520 1518 1517 1518 1518 1515 1512 1509 1506 1502 1500 1498
1481 1475 1468 1461 1470 1471 1470 1465 1471 1472 1469 1470 1471 1472 1473 1475 1476 1478 1481 1484 1489 1495 1499 1503 1505 1505 1510 1514 1513 1518 1520 1519 1517 1516 1516 1516 1515 1512 1509 1506 1504 1501 1499 1496
1479 1482 1478 1473 1476 1476 1476 1468 1474 1474 1472 1472 1473 1472 1474 1477 1477 1478 1481 1486 1491 1497 1501 1503 1504 1507 1515 1516 1515 1518 1520 1517 1516 1516 1515 1514 1512 1509 1507 1505 1502 1499 1496 1494
1479 1481 1470 1474 1477 1477 1475 1477 1477 1476 1473 1474 1475 1478 1480 1479 1480 1482 1485 1489 1494 1499 1502 1506 1506 1509 1514 1517 1517 1518 1518 1515 1516 1516 1514 1512 1510 1508 1506 1503 1500 1496 1494 1492
1473 1479 1486 1478 1477 1478 1476 1477 1477 1476 1474 1475 1476 1478 1480 1481 1483 1486 1489 1494 1498 1500 1504 1509 1511 1512 1516 1517 1517 1518 1517 1515 1516 1515 1512 1511 1509 1507 1505 1502 1498 1495 1492 1489
1475 1475 1477 1479 1479 1478 1477 1476 1475 1475 1475 1475 1478 1479 1481 1484 1488 1491 1494 1496 1500 1503 1508 1512 1514 1514 1517 1518 1518 1518 1518 1516 1515 1513 1511 1510 1509 1507 1504 1500 1498 1494 1490 1486
1479 1476 1475 1477 1476 1475 1474 1473 1472 1472 1474 1475 1478 1481 1484 1489 1492 1496 1499 1502 1505 1509 1511 1514 1515 1517 1519 1518 1518 1519 1518 1516 1514 1513 1511 1510 1509 1506 1503 1500 1497 1493 1490 1487
1476 1475 1474 1473 1473 1473 1473 1472 1472 1473 1476 1478 1480 1485 1488 1492 1497 1501 1504 1507 1509 1512 1514 1516 1518 1519 1519 1520 1520 1520 1518 1517 1516 1514 1512 1510 1507 1506 1503 1500 1497 1494 1490 1487
1471 1472 1476 1475 1475 1473 1473 1473 1476 1477 1480 1483 1486 1490 1495 1498 1502 1505 1508 1510 1513 1515 1517 1518 1520 1521 1521 1522 1522 1521 1520 1518 1516 1515 1513 1510 1508 1505 1502 1500 1497 1494 1491 1488
1474 1474 1475 1475 1474 1473 1474 1477 1480 1483 1487 1489 1494 1498 1500 1503 1506 1509 1511 1514 1516 1517 1519 1521 1522 1523 1523 1523 1522 1521 1519 1518 1517 1515 1513 1511 1509 1507 1504 1501 1499 1496 1492 1488
1470 1472 1474 1473 1474 1474 1478 1484 1487 1491 1494 1496 1500 1503 1504 1507 1511 1513 1515 1517 1519 1521 1522 1523 1524 1524 1524 1523 1522 1521 1520 1518 1518 1516 1514 1512 1510 1508 1505 1502 1500 1497 1493 1489
1471 1475 1477 1480 1481 1483 1487 1490 1493 1496 1499 1502 1505 1506 1509 1512 1514 1517 1518 1520 1522 1523 1524 1525 1526 1526 1525 1525 1524 1523 1522 1520 1519 1517 1515 1513 1511 1509 1507 1504 1501 1498 1494 1490
1480 1481 1483 1485 1487 1490 1491 1493 1496 1499 1502 1505 1508 1510 1513 1516 1518 1520 1522 1523 1524 1525 1527 1527 1527 1528 1528 1527 1527 1525 1523 1520 1520 1519 1517 1515 1513 1510 1508 1506 1502 1498 1495 1491
1485 1486 1488 1489 1490 1492 1494 1497 1500 1503 1506 1509 1512 1515 1517 1519 1522 1523 1524 1526 1527 1527 1528 1529 1530 1530 1530 1530 1529 1528 1527 1525 1523 1522 1520 1517 1515 1512 1509 1507 1503 1499 1497 1493
1489 1490 1491 1492 1494 1496 1499 1502 1505 1507 1510 1513 1516 1519 1521 1523 1525 1526 1527 1528 1529 1530 1531 1532 1532 1533 1533 1532 1531 1531 1530 1528 1526 1524 1522 1519 1517 1514 1512 1509 1504 1501 1498 1494
1493 1494 1496 1497 1499 1501 1503 1506 1509 1512 1515 1517 1520 1522 1524 1526 1528 1529 1531 1532 1532 1533 1535 1534 1534 1535 1534 1533 1533 1533 1532 1530 1528 1526 1524 1521 1519 1516 1513 1510 1507 1503 1499 1496
1497 1498 1500 1502 1504 1506 1509 1512 1514 1517 1520 1521 1524 1526 1528 1530 1532 1533 1534 1535 1536 1537 1537 1537 1538 1538 1537 1536 1535 1535 1534 1532 1530 1528 1525 1523 1521 1518 1515 1512 1510 1507 1504 1500
1501 1502 1504 1506 1508 1511 1513 1516 1519 1521 1524 1526 1528 1529 1532 1534 1536 1536 1537 1538 1539 1540 1540 1540 1541 1541 1540 1539 1538 1537 1536 1534 1532 1530 1528 1525 1523 1520 1517 1515 1512 1510 1507 1504
1504 1506 1509 1511 1513 1515 1518 1521 1523 1525 1527 1529 1531 1533 1535 1537 1538 1538 1540 1541 1542 1542 1544 1544 1543 1542 1542 1541 1541 1540 1538 1536 1534 1532 1530 1528 1525 1523 1520 1517 1515 1513 1510 1508
1507 1510 1512 1515 1517 1519 1521 1524 1526 1528 1530 1532 1534 1536 1538 1539 1540 1541 1542 1544 1544 1546 1546 1545 1544 1544 1544 1545 1544 1542 1541 1539 1537 1535 1533 1531 1528 1525 1523 1520 1518 1516 1513 1511
1509 1512 1515 1518 1521 1523 1525 1527 1529 1531 1533 1536 1537 1539 1540 1541 1542 1542 1543 1545 1546 1547 1547 1546 1546 1546 1548 1548 1547 1545 1544 1542 1541 1539 1536 1534 1532 1529 1526 1523 1521 1519 1516 1514
1510 1514 1516 1520 1523 1525 1528 1530 1531 1533 1536 1538 1539 1541 1543 1543 1544 1545 1546 1547 1548 1550 1549 1548 1549 1550 1551 1551 1550 1548 1546 1544 1542 1541 1539 1537 1535 1532 1530 1527 1524 1521 1519 1517
1510 1513 1517 1521 1524 1526 1529 1530 1532 1535 1537 1540 1542 1544 1544 1545 1546 1547 1548 1550 1551 1551 1552 1552 1553 1554 1554 1553 1552 1551 1550 1548 1546 1543 1542 1540 1537 1535 1533 1531 1528 1525 1522 1519
1512 1514 1517 1521 1524 1527 1529 1531 1533 1536 1538 1540 1543 1545 1546 1547 1548 1550 1551 1552 1553 1554 1555 1555 1556 1556 1556 1556 1555 1554 1552 1550 1548 1547 1545 1543 1541 1539 1536 1534 1531 1528 1526 1522